Blytheville, AR

5:27 PM CST on February 27, 2017 (GMT -0600)
Blytheville Municipal

Weather History for KHKA - February, 2013

Change the Weather History Date:

Wednesday, February 27, 2013

  Actual Average Record
Temperature  
Mean Temperature 40 °F -  
Max Temperature 42 °F 54 °F 78 °F (1954)
Min Temperature 35 °F 35 °F 8 °F (1934)
Degree Days  
Heating Degree Days 26    
Moisture  
Dew Point 31 °F    
Average Humidity 72    
Maximum Humidity 81    
Minimum Humidity 65    
Precipitation  
Precipitation 0.00 in - - ()
Sea Level Pressure  
Sea Level Pressure 29.91 in    
Wind  
Wind Speed 13 mph (West)    
Max Wind Speed 17 mph    
Max Gust Speed 26 mph    
Visibility 10 miles    
Events Rain    
Averages and records for this station are not official NWS values.
T = Trace of Precipitation, MM = Missing Value Source: NWS Daily Summary

Daily Weather History Graph

Daily Weather History Graph

Search for Another Location

Airport or City:

Trip Planner

Search our weather history database for the weather conditions in past years. The results will help you decide how hot, cold, wet, or windy it might be!

Date:

Astronomy

Feb. 27, 2013 Rise Set
Actual Time 6:31 AM CST 5:52 PM CST
Civil Twilight 6:05 AM CST 6:18 PM CST
Nautical Twilight 5:36 AM CST 6:48 PM CST
Astronomical Twilight 5:06 AM CST 7:17 PM CST
Moon 8:07 PM CST 7:12 AM CST
Length of Visible Light 12h 12m
Length of Day
11h 21m
Waning Gibbous, 96% of the Moon is Illuminated
Feb 27
Waning Gibbous
Mar 4
Last Quarter
Mar 11
New
Mar 19
First Quarter
Mar 27
Full

Hourly Weather History & Observations

Time (CST) Temp. Windchill Dew Point Humidity Pressure Visibility Wind Dir Wind Speed Gust Speed Precip Events Conditions
12:53 AM 39.0 °F 30.3 °F 30.9 °F 73% 29.82 in 10.0 mi West 16.1 mph 23.0 mph N/A   Overcast
1:53 AM 39.0 °F 30.6 °F 30.9 °F 73% 29.82 in 10.0 mi West 15.0 mph 21.9 mph N/A   Overcast
2:53 AM 37.9 °F 30.9 °F 30.0 °F 73% 29.82 in 10.0 mi West 10.4 mph - N/A   Mostly Cloudy
4:53 AM 37.9 °F 32.7 °F 30.9 °F 76% 29.85 in 10.0 mi West 6.9 mph - N/A   Overcast
5:20 AM 37.4 °F 28.9 °F 30.2 °F 75% 29.85 in 10.0 mi West 13.8 mph 20.7 mph N/A   Overcast
5:53 AM 37.9 °F 29.2 °F 30.0 °F 73% 29.87 in 10.0 mi West 15.0 mph 23.0 mph N/A   Overcast
6:53 AM 37.9 °F 32.1 °F 30.0 °F 73% 29.88 in 10.0 mi West 8.1 mph - N/A   Overcast
7:53 AM 37.9 °F 30.5 °F 30.0 °F 73% 29.90 in 10.0 mi West 11.5 mph - N/A   Overcast
9:53 AM 39.0 °F 31.8 °F 30.9 °F 73% 29.92 in 10.0 mi West 11.5 mph - N/A   Overcast
10:53 AM 41.0 °F 34.7 °F 30.9 °F 67% 29.92 in 10.0 mi West 10.4 mph - N/A   Overcast
11:09 AM 39.2 °F 32.0 °F 30.2 °F 70% 29.93 in 10.0 mi WSW 11.5 mph 20.7 mph N/A   Overcast
11:53 AM 39.9 °F 31.8 °F 28.9 °F 65% 29.94 in 10.0 mi West 15.0 mph 20.7 mph N/A   Overcast
12:08 PM 39.2 °F 30.2 °F 30.2 °F 70% 29.93 in 10.0 mi West 17.3 mph 21.9 mph N/A   Overcast
12:21 PM 41.0 °F 33.5 °F 33.8 °F 76% 29.93 in 10.0 mi West 13.8 mph 23.0 mph 0.00 in Rain Light Rain
12:53 PM 39.9 °F 33.4 °F 33.1 °F 77% 29.92 in 10.0 mi West 10.4 mph 20.7 mph 0.00 in   Overcast
1:34 PM 39.2 °F 30.8 °F 33.8 °F 81% 29.91 in 10.0 mi West 15.0 mph 21.9 mph N/A   Overcast
1:46 PM 39.2 °F 31.2 °F 33.8 °F 81% 29.91 in 10.0 mi WSW 13.8 mph 21.9 mph N/A   Overcast
1:53 PM 41.0 °F 34.3 °F 33.1 °F 73% 29.91 in 10.0 mi West 11.5 mph 20.7 mph N/A   Overcast
2:53 PM 42.1 °F 34.2 °F 33.1 °F 70% 29.92 in 10.0 mi West 16.1 mph 21.9 mph N/A   Overcast
3:53 PM 42.1 °F 34.5 °F 32.0 °F 67% 29.93 in 10.0 mi West 15.0 mph 24.2 mph N/A   Overcast
4:53 PM 42.1 °F 34.5 °F 32.0 °F 67% 29.94 in 10.0 mi WNW 15.0 mph - N/A   Overcast
5:53 PM 41.0 °F 35.2 °F 32.0 °F 70% 29.95 in 10.0 mi West 9.2 mph - N/A   Overcast
6:53 PM 39.9 °F 35.1 °F 32.0 °F 73% 29.96 in 10.0 mi West 6.9 mph - N/A   Mostly Cloudy
7:53 PM 39.9 °F 32.9 °F 32.0 °F 73% 29.96 in 10.0 mi West 11.5 mph - N/A   Mostly Cloudy
8:53 PM 39.9 °F 31.8 °F 30.0 °F 68% 29.96 in 10.0 mi WNW 15.0 mph - N/A   Overcast
9:53 PM 37.9 °F 28.5 °F 28.0 °F 68% 29.98 in 10.0 mi NW 17.3 mph 26.5 mph N/A   Overcast
10:53 PM 37.0 °F 28.9 °F 28.9 °F 73% 29.98 in 10.0 mi WNW 12.7 mph - N/A   Overcast
11:53 PM 35.1 °F 27.4 °F 28.0 °F 76% 29.98 in 10.0 mi WNW 10.4 mph - N/A   Partly Cloudy